Weather History for Dillon, MT

Change the Weather History Date:

Sunday, February 24, 2013

  Actual Average Record
Temperature  
Mean Temperature 22 °F 28 °F  
Max Temperature 35 °F 40 °F 62 °F (1986)
Min Temperature 8 °F 17 °F -20 °F (2003)
Degree Days  
Heating Degree Days 43    
Month to date heating degree days 861  
Since 1 July heating degree days 5261  
Cooling Degree Days 0    
Month to date cooling degree days 0  
Year to date cooling degree days 0  
Moisture  
Dew Point 8 °F    
Average Humidity 58    
Maximum Humidity 80    
Minimum Humidity 35    
Precipitation  
Precipitation 0.00 in 0.01 in 0.35 in (2000)
Month to date precipitation 0.08 0.19  
Year to date precipitation 0.26 0.47  
Snow  
Snow 0.00 in - - ()
Snow Depth 0.00 in    
Sea Level Pressure  
Sea Level Pressure 30.24 in    
Wind  
Wind Speed 12 mph (SSW)    
Max Wind Speed 25 mph    
Max Gust Speed 31 mph    
Visibility 10 miles    
Events      
T = Trace of Precipitation, MM = Missing Value Source: NWS Daily Summary

Daily Weather History Graph

Daily Weather History Graph

Search for Another Location

Airport:

Trip Planner

Search our weather history database for the weather conditions in past years. The results will help you decide how hot, cold, wet, or windy it might be!

Date:

Astronomy

Feb. 24, 2013 Rise Set
Actual Time 7:16 AM MST 6:11 PM MST
Civil Twilight 6:46 AM MST 6:40 PM MST
Nautical Twilight 6:12 AM MST 7:15 PM MST
Astronomical Twilight 5:38 AM MST 7:49 PM MST
Moon 5:26 PM MST (2/24) 6:16 AM MST (2/24)
Length of Visible Light 11h 54m
Length of Day
10h 54m
Waxing Gibbous, 99% of the Moon is Illuminated
Feb 24
Waxing Gibbous
Feb 25
Full
Mar 4
Last Quarter
Mar 11
New
Mar 19
First Quarter

Hourly Weather History & Observations

Time (MST) Temp. Windchill Dew Point Humidity Pressure Visibility Wind Dir Wind Speed Gust Speed Precip Events Conditions
12:53 AM 17.1 °F 8.7 °F 10.9 °F 77% 30.19 in 10.0 mi SE 5.8 mph - N/A   Overcast
1:53 AM 15.1 °F 5.2 °F 10.0 °F 80% 30.20 in 10.0 mi SSE 6.9 mph - N/A   Mostly Cloudy
2:53 AM 15.1 °F 5.2 °F 7.0 °F 70% 30.22 in 10.0 mi South 6.9 mph - N/A   Clear
3:53 AM 10.0 °F 0.4 °F 3.9 °F 76% 30.26 in 10.0 mi SSE 5.8 mph - N/A   Clear
4:53 AM 14.0 °F 2.9 °F 5.0 °F 67% 30.27 in 10.0 mi South 8.1 mph - N/A   Partly Cloudy
5:53 AM 9.0 °F -0.9 °F 3.0 °F 77% 30.31 in 10.0 mi SSE 5.8 mph - N/A   Clear
6:53 AM 9.0 °F -2.2 °F 1.9 °F 73% 30.32 in 10.0 mi SSE 6.9 mph - N/A   Clear
7:53 AM 12.9 °F 3.8 °F 3.9 °F 67% 30.33 in 10.0 mi South 5.8 mph - N/A   Clear
8:53 AM 19.0 °F 9.0 °F 7.0 °F 59% 30.31 in 10.0 mi South 8.1 mph - N/A   Clear
9:53 AM 23.0 °F 12.4 °F 9.0 °F 55% 30.30 in 10.0 mi SSW 10.4 mph - N/A   Clear
10:53 AM 27.0 °F 16.1 °F 12.0 °F 53% 30.29 in 10.0 mi South 12.7 mph - N/A   Clear
11:53 AM 30.0 °F 19.5 °F 10.9 °F 45% 30.27 in 10.0 mi SSW 13.8 mph - N/A   Clear
12:53 PM 30.9 °F 22.8 °F 10.9 °F 43% 30.26 in 10.0 mi WSW 9.2 mph 19.6 mph N/A   Clear
1:53 PM 33.1 °F 21.2 °F 10.0 °F 38% 30.22 in 10.0 mi WSW 20.7 mph 28.8 mph N/A   Clear
2:53 PM 34.0 °F 22.4 °F 9.0 °F 35% 30.19 in 10.0 mi WSW 20.7 mph 31.1 mph N/A   Clear
3:53 PM 34.0 °F 23.8 °F 10.0 °F 37% 30.22 in 10.0 mi WSW 16.1 mph - N/A   Clear
4:53 PM 34.0 °F 23.0 °F 10.0 °F 37% 30.19 in 10.0 mi WSW 18.4 mph - N/A   Clear
6:53 PM 27.0 °F 15.6 °F 10.0 °F 49% 30.26 in 10.0 mi SW 13.8 mph - N/A   Clear
7:53 PM 25.0 °F 13.6 °F 10.9 °F 55% 30.25 in 10.0 mi SSW 12.7 mph - N/A   Clear
8:53 PM 26.1 °F 13.1 °F 10.9 °F 53% 30.21 in 10.0 mi South 17.3 mph - N/A   Clear
9:53 PM 26.1 °F 12.3 °F 10.0 °F 51% 30.19 in 10.0 mi SSW 19.6 mph - N/A   Clear
10:53 PM 23.0 °F 10.1 °F 10.0 °F 58% 30.19 in 10.0 mi South 15.0 mph - N/A   Clear
11:53 PM 21.0 °F 7.6 °F 9.0 °F 60% 30.17 in 10.0 mi South 15.0 mph - N/A   Clear